DECAYED

COSMOS 2251 DEB, 36626 (Decayed)

Orbit data source: Space-Track

COSMOS 2251 DEB, 36626 was space debris in LEO originally from a launch on Wed, 16 Jun 1993 UTC launched from the Plesetsk Missile And Space Complex (PKMTR). The debris from Iridium 33, an American commercial communications satellite, has been tracked extensively since its accidental collision with the defunct Russian satellite Cosmos 2251 in 2009. This event, occurring at high speed in low Earth orbit (LEO), generated thousands of pieces of space debris, significantly increasing the risk of further collisions. The Iridium 33 debris cloud has impacted space traffic management and orbital debris mitigation strategies, making it a subject of ongoing study in space situational awareness.

Loading next visibility...
Identifier
36626, 1993-036BEQ
Orbit
Decayed
Country
Flag of CISCIS
Related business
Manufacturer
Unknown
Mission
Decayed spacecraft
Bus & Motor
Unknown
Mass
Unknown
Launch date (UTC)
1993-06-16 (33 years ago)
Launch vehicle
Unknown
Launch site
Plesetsk Missile And Space Complex (PKMTR)
Object type
Payload
Rocket body
Debris
Shape & HBR
Unknown shape, 0.1 m
Radar Cross Section
Small (<0.1 m²)

Expand to show TLE details & history
Last TLE update: 1 year ago

TLE from 1 year ago
0 COSMOS 2251 DEB
1 36626U 93036BEQ 25109.24295789  .00782382  27402-3  17895-2 0  9997
2 36626  73.9854 313.1685 0012068  52.0522 308.1804 15.97172511647326
Epoch: 2025-04-19T05:49Z
TLE epoch observation values (Epoch: 2025-04-19T05:49:51.561Z)
Latitude
-0.00001°
Longitude
18.1147°
Altitude
280.104 km
Speed
7.742 km/s
True Right ascension
20h 52m 40s
True Declination
0° 00' 00"
Sunlit
Object was in daylight at epoch
Visualization orbit readout
Latitude
Unknown
Longitude
Unknown
Altitude
Unknown
Speed
Unknown
Apparent Right ascension
Unknown
Apparent Declination
Unknown
Sunlit
N/A
Visualization observer readout
Local Sidereal Time
04:39:39
Azimuth
Unknown
Elevation
Unknown
Doppler factor
Unknown
Orbital elements
Apogee altitude
287.756 km
Perigee altitude
271.687 km
Semi-major axis
6,657.858 km
Eccentricity
0.00121
Inclination
73.9854°
RAAN
313.1685°
Arg. of periapsis
52.0522°
True anomaly
308.07159°
Mean anomaly
308.1804°
Eccentric anomaly
308.12601°
Mean motion
3.99523 °/min
Orbital period
90.11 mins
BSTAR
0.0017895
Loading maneuver chart data...
Computing Atmospheric mass density...

Documentation

Showing up to 5 results
|